Time,TemperatureF,DewpointF,PressureIn,WindDirection,WindDirectionDegrees,WindSpeedMPH,WindSpeedGustMPH,Humidity,HourlyPrecipIn,Conditions,Clouds,dailyrainin,SoftwareType,DateUTC
2013-01-24 00:00:00,55.4,43.8,30.02,North,0,0.0,4.0,65,0.00,,,0.00,WeatherCatV1.11B39,2013-01-24 08:00:00,
2013-01-24 00:05:00,55.3,44.1,30.02,North,10,0.0,4.0,66,0.00,,,0.00,WeatherCatV1.11B39,2013-01-24 08:05:00,
2013-01-24 00:10:00,55.3,44.5,30.02,North,9,0.0,0.0,67,0.00,,,0.00,WeatherCatV1.11B39,2013-01-24 08:10:00,
2013-01-24 00:15:00,55.2,44.4,30.02,North,9,0.0,0.0,67,0.00,,,0.00,WeatherCatV1.11B39,2013-01-24 08:15:00,
2013-01-24 00:20:00,55.1,44.7,30.01,North,9,0.0,1.0,68,0.00,,,0.00,WeatherCatV1.11B39,2013-01-24 08:20:00,
2013-01-24 00:25:00,55.0,44.6,30.01,North,9,0.0,0.0,68,0.00,,,0.00,WeatherCatV1.11B39,2013-01-24 08:25:00,
2013-01-24 00:30:00,54.9,44.9,30.02,North,9,0.0,0.0,69,0.00,,,0.00,WeatherCatV1.11B39,2013-01-24 08:30:00,
2013-01-24 00:35:00,54.7,44.7,30.01,North,9,0.0,0.0,69,0.00,,,0.00,WeatherCatV1.11B39,2013-01-24 08:35:00,
2013-01-24 00:40:00,54.5,44.2,30.01,North,9,0.0,0.0,68,0.00,,,0.00,WeatherCatV1.11B39,2013-01-24 08:40:00,
2013-01-24 00:45:00,54.5,44.5,30.01,North,9,0.0,0.0,69,0.00,,,0.00,WeatherCatV1.11B39,2013-01-24 08:45:00,
2013-01-24 00:50:00,54.5,45.3,30.02,North,9,0.0,0.0,71,0.00,,,0.00,WeatherCatV1.11B39,2013-01-24 08:50:00,
2013-01-24 00:55:00,54.4,45.2,30.01,North,9,0.0,0.0,71,0.00,,,0.00,WeatherCatV1.11B39,2013-01-24 08:55:00,
2013-01-24 01:02:00,54.3,45.5,30.01,North,9,0.0,0.0,72,0.00,,,0.00,WeatherCatV1.11B39,2013-01-24 09:02:00,
2013-01-24 01:07:00,54.1,45.3,30.01,North,9,0.0,0.0,72,0.00,,,0.00,WeatherCatV1.11B39,2013-01-24 09:07:00,
2013-01-24 01:12:00,53.9,45.4,30.02,North,9,1.0,1.0,73,0.00,,,0.00,WeatherCatV1.11B39,2013-01-24 09:12:00,
2013-01-24 01:17:00,53.7,44.9,30.02,SW,214,0.0,2.0,72,0.00,,,0.00,WeatherCatV1.11B39,2013-01-24 09:17:00,
2013-01-24 01:22:00,53.5,44.7,30.02,SSW,213,2.0,2.0,72,0.00,,,0.00,WeatherCatV1.11B39,2013-01-24 09:22:00,
2013-01-24 01:27:00,53.4,45.0,30.02,WSW,246,0.0,3.0,73,0.00,,,0.00,WeatherCatV1.11B39,2013-01-24 09:27:00,
2013-01-24 01:32:00,53.3,45.2,30.02,WSW,243,2.0,3.0,74,0.00,,,0.00,WeatherCatV1.11B39,2013-01-24 09:32:00,
2013-01-24 01:37:00,53.2,45.5,30.02,WSW,243,1.0,2.0,75,0.00,,,0.00,WeatherCatV1.11B39,2013-01-24 09:37:00,
2013-01-24 01:42:00,53.1,45.7,30.02,SW,234,2.0,3.0,76,0.00,,,0.00,WeatherCatV1.11B39,2013-01-24 09:42:00,
2013-01-24 01:47:00,52.8,46.1,30.02,WSW,238,3.0,6.0,78,0.00,,,0.00,WeatherCatV1.11B39,2013-01-24 09:47:00,
2013-01-24 01:52:00,52.5,46.5,30.03,WSW,246,1.0,2.0,80,0.00,,,0.00,WeatherCatV1.11B39,2013-01-24 09:52:00,
2013-01-24 01:57:00,52.3,46.6,30.03,WSW,249,2.0,5.0,81,0.00,,,0.00,WeatherCatV1.11B39,2013-01-24 09:57:00,
2013-01-24 02:02:00,52.0,46.7,30.03,WSW,247,1.0,1.0,82,0.00,,,0.00,WeatherCatV1.11B39,2013-01-24 10:02:00,
2013-01-24 02:07:00,51.8,46.8,30.03,WSW,246,0.0,1.0,83,0.00,,,0.00,WeatherCatV1.11B39,2013-01-24 10:07:00,
2013-01-24 02:12:00,51.5,46.8,30.03,WSW,246,0.0,5.0,84,0.00,,,0.00,WeatherCatV1.11B39,2013-01-24 10:12:00,
2013-01-24 02:17:00,51.3,46.9,30.03,WSW,252,0.0,3.0,85,0.00,,,0.00,WeatherCatV1.11B39,2013-01-24 10:17:00,
2013-01-24 02:22:00,51.1,46.7,30.03,WSW,252,0.0,3.0,85,0.00,,,0.00,WeatherCatV1.11B39,2013-01-24 10:22:00,
2013-01-24 02:27:00,50.9,46.9,30.03,WSW,250,0.0,5.0,86,0.00,,,0.00,WeatherCatV1.11B39,2013-01-24 10:27:00,
2013-01-24 02:32:00,50.7,47.0,30.03,WSW,252,0.0,4.0,87,0.00,,,0.00,WeatherCatV1.11B39,2013-01-24 10:32:00,
2013-01-24 02:37:00,50.5,47.1,30.02,West,264,0.0,1.0,88,0.00,,,0.00,WeatherCatV1.11B39,2013-01-24 10:37:00,
2013-01-24 02:42:00,50.3,46.9,30.02,West,264,0.0,1.0,88,0.00,,,0.00,WeatherCatV1.11B39,2013-01-24 10:42:00,
2013-01-24 02:47:00,50.2,46.8,30.03,West,263,0.0,3.0,88,0.00,,,0.00,WeatherCatV1.11B39,2013-01-24 10:47:00,
2013-01-24 02:52:00,50.1,47.0,30.03,West,263,0.0,0.0,89,0.00,,,0.00,WeatherCatV1.11B39,2013-01-24 10:52:00,
2013-01-24 02:57:00,50.0,46.9,30.03,West,259,0.0,2.0,89,0.00,,,0.00,WeatherCatV1.11B39,2013-01-24 10:57:00,
2013-01-24 03:02:00,49.9,47.1,30.02,West,259,0.0,0.0,90,0.00,,,0.00,WeatherCatV1.11B39,2013-01-24 11:02:00,
2013-01-24 03:07:00,49.8,47.0,30.03,West,259,0.0,0.0,90,0.00,,,0.00,WeatherCatV1.11B39,2013-01-24 11:07:00,
2013-01-24 03:12:00,49.8,47.0,30.03,West,259,0.0,1.0,90,0.00,,,0.00,WeatherCatV1.11B39,2013-01-24 11:12:00,
2013-01-24 03:17:00,49.7,46.9,30.03,West,259,0.0,2.0,90,0.00,,,0.00,WeatherCatV1.11B39,2013-01-24 11:17:00,
2013-01-24 03:22:00,49.7,47.2,30.04,WSW,258,1.0,5.0,91,0.00,,,0.00,WeatherCatV1.11B39,2013-01-24 11:22:00,
2013-01-24 03:27:00,49.6,47.1,30.03,WSW,252,0.0,2.0,91,0.00,,,0.00,WeatherCatV1.11B39,2013-01-24 11:27:00,
2013-01-24 03:32:00,49.5,47.0,30.03,WSW,252,0.0,1.0,91,0.00,,,0.00,WeatherCatV1.11B39,2013-01-24 11:32:00,
2013-01-24 03:37:00,49.5,47.0,30.03,WSW,252,0.0,1.0,91,0.00,,,0.00,WeatherCatV1.11B39,2013-01-24 11:37:00,
2013-01-24 03:42:00,49.4,46.9,30.03,WSW,252,0.0,1.0,91,0.00,,,0.00,WeatherCatV1.11B39,2013-01-24 11:42:00,
2013-01-24 03:47:00,49.3,46.8,30.03,WSW,253,0.0,2.0,91,0.00,,,0.00,WeatherCatV1.11B39,2013-01-24 11:47:00,
2013-01-24 03:52:00,49.2,46.7,30.03,WSW,253,0.0,1.0,91,0.00,,,0.00,WeatherCatV1.11B39,2013-01-24 11:52:00,
2013-01-24 03:57:00,49.2,46.7,30.03,WSW,253,0.0,1.0,91,0.00,,,0.00,WeatherCatV1.11B39,2013-01-24 11:57:00,
2013-01-24 04:02:00,49.2,46.7,30.03,WSW,253,0.0,1.0,91,0.00,,,0.00,WeatherCatV1.11B39,2013-01-24 12:02:00,
2013-01-24 04:07:00,49.1,46.9,30.03,WSW,253,0.0,0.0,92,0.00,,,0.00,WeatherCatV1.11B39,2013-01-24 12:07:00,
2013-01-24 04:12:00,49.1,46.9,30.03,WSW,253,0.0,0.0,92,0.00,,,0.00,WeatherCatV1.11B39,2013-01-24 12:12:00,
2013-01-24 04:17:00,49.0,46.8,30.03,WSW,253,0.0,0.0,92,0.00,,,0.00,WeatherCatV1.11B39,2013-01-24 12:17:00,
2013-01-24 04:22:00,49.0,46.8,30.04,WSW,253,0.0,1.0,92,0.00,,,0.00,WeatherCatV1.11B39,2013-01-24 12:22:00,
2013-01-24 04:27:00,48.9,46.7,30.04,WSW,253,0.0,4.0,92,0.00,,,0.00,WeatherCatV1.11B39,2013-01-24 12:27:00,
2013-01-24 04:32:00,48.8,46.6,30.04,WSW,253,1.0,4.0,92,0.00,,,0.00,WeatherCatV1.11B39,2013-01-24 12:32:00,
2013-01-24 04:37:00,48.8,46.6,30.04,WSW,253,1.0,4.0,92,0.00,,,0.00,WeatherCatV1.11B39,2013-01-24 12:37:00,
2013-01-24 04:42:00,48.8,46.6,30.05,WSW,250,0.0,4.0,92,0.00,,,0.00,WeatherCatV1.11B39,2013-01-24 12:42:00,
2013-01-24 04:47:00,48.8,46.9,30.05,WSW,250,3.0,4.0,93,0.00,,,0.00,WeatherCatV1.11B39,2013-01-24 12:47:00,
2013-01-24 04:52:00,48.7,46.8,30.05,WSW,250,2.0,3.0,93,0.00,,,0.00,WeatherCatV1.11B39,2013-01-24 12:52:00,
2013-01-24 04:57:00,48.7,46.8,30.05,WSW,250,1.0,2.0,93,0.00,,,0.01,WeatherCatV1.11B39,2013-01-24 12:57:00,
2013-01-24 05:02:00,48.7,46.8,30.05,WSW,250,4.0,4.0,93,0.00,,,0.01,WeatherCatV1.11B39,2013-01-24 13:02:00,
2013-01-24 05:07:00,48.6,46.7,30.04,WSW,250,0.0,0.0,93,0.00,,,0.01,WeatherCatV1.11B39,2013-01-24 13:07:00,
2013-01-24 05:12:00,48.6,46.7,30.05,WSW,250,0.0,1.0,93,0.00,,,0.02,WeatherCatV1.11B39,2013-01-24 13:12:00,
2013-01-24 05:17:00,48.6,46.7,30.05,WSW,250,1.0,1.0,93,0.00,,,0.02,WeatherCatV1.11B39,2013-01-24 13:17:00,
2013-01-24 05:22:00,48.5,46.9,30.05,WSW,250,0.0,0.0,94,0.00,,,0.02,WeatherCatV1.11B39,2013-01-24 13:22:00,
2013-01-24 05:27:00,48.5,46.9,30.05,WSW,250,0.0,1.0,94,0.00,,,0.02,WeatherCatV1.11B39,2013-01-24 13:27:00,
2013-01-24 05:32:00,48.4,46.8,30.05,WSW,250,0.0,0.0,94,0.00,,,0.02,WeatherCatV1.11B39,2013-01-24 13:32:00,
2013-01-24 05:37:00,48.4,46.8,30.05,WSW,250,0.0,1.0,94,0.00,,,0.02,WeatherCatV1.11B39,2013-01-24 13:37:00,
2013-01-24 05:42:00,48.3,46.7,30.06,WSW,250,0.0,0.0,94,0.00,,,0.02,WeatherCatV1.11B39,2013-01-24 13:42:00,
2013-01-24 05:47:00,48.3,46.7,30.06,WSW,250,0.0,0.0,94,0.00,,,0.02,WeatherCatV1.11B39,2013-01-24 13:47:00,
2013-01-24 05:52:00,48.2,46.6,30.06,WSW,250,0.0,0.0,94,0.00,,,0.02,WeatherCatV1.11B39,2013-01-24 13:52:00,
2013-01-24 05:57:00,48.1,46.5,30.06,WSW,250,0.0,0.0,94,0.00,,,0.02,WeatherCatV1.11B39,2013-01-24 13:57:00,
2013-01-24 06:02:00,48.2,46.6,30.06,WSW,250,0.0,0.0,94,0.00,,,0.02,WeatherCatV1.11B39,2013-01-24 14:02:00,
2013-01-24 06:07:00,48.1,46.7,30.06,WSW,250,2.0,2.0,95,0.00,,,0.02,WeatherCatV1.11B39,2013-01-24 14:07:00,
2013-01-24 06:12:00,48.1,46.7,30.06,WSW,250,0.0,0.0,95,0.00,,,0.02,WeatherCatV1.11B39,2013-01-24 14:12:00,
2013-01-24 06:17:00,48.1,46.7,30.06,WSW,250,0.0,0.0,95,0.00,,,0.02,WeatherCatV1.11B39,2013-01-24 14:17:00,
2013-01-24 06:22:00,48.1,46.7,30.07,WSW,250,0.0,0.0,95,0.00,,,0.02,WeatherCatV1.11B39,2013-01-24 14:22:00,
2013-01-24 06:27:00,48.1,46.7,30.07,WSW,250,0.0,0.0,95,0.00,,,0.02,WeatherCatV1.11B39,2013-01-24 14:27:00,
2013-01-24 06:32:00,48.1,46.7,30.07,WSW,250,0.0,1.0,95,0.00,,,0.02,WeatherCatV1.11B39,2013-01-24 14:32:00,
2013-01-24 06:37:00,48.1,46.7,30.07,WSW,250,0.0,0.0,95,0.00,,,0.02,WeatherCatV1.11B39,2013-01-24 14:37:00,
2013-01-24 06:42:00,48.1,46.7,30.07,WSW,250,0.0,0.0,95,0.00,,,0.02,WeatherCatV1.11B39,2013-01-24 14:42:00,
2013-01-24 06:47:00,48.1,46.7,30.08,WSW,250,0.0,0.0,95,0.00,,,0.02,WeatherCatV1.11B39,2013-01-24 14:47:00,
2013-01-24 06:52:00,48.1,46.7,30.08,WSW,250,0.0,0.0,95,0.00,,,0.02,WeatherCatV1.11B39,2013-01-24 14:52:00,
2013-01-24 06:57:00,48.1,46.7,30.08,WSW,250,0.0,0.0,95,0.00,,,0.02,WeatherCatV1.11B39,2013-01-24 14:57:00,
2013-01-24 07:02:00,48.1,46.7,30.08,WSW,250,0.0,0.0,95,0.00,,,0.02,WeatherCatV1.11B39,2013-01-24 15:02:00,
2013-01-24 07:07:00,48.1,46.7,30.08,WSW,250,0.0,0.0,95,0.00,,,0.02,WeatherCatV1.11B39,2013-01-24 15:07:00,
2013-01-24 07:12:00,48.1,46.7,30.08,WSW,250,0.0,0.0,95,0.00,,,0.02,WeatherCatV1.11B39,2013-01-24 15:12:00,
2013-01-24 07:17:00,48.1,47.0,30.09,WSW,250,1.0,1.0,96,0.00,,,0.03,WeatherCatV1.11B39,2013-01-24 15:17:00,
2013-01-24 07:22:00,48.2,47.1,30.09,WSW,250,0.0,1.0,96,0.00,,,0.03,WeatherCatV1.11B39,2013-01-24 15:22:00,
2013-01-24 07:27:00,48.2,47.1,30.09,WSW,250,0.0,0.0,96,0.00,,,0.03,WeatherCatV1.11B39,2013-01-24 15:27:00,
2013-01-24 07:32:00,48.2,47.1,30.09,WSW,250,0.0,1.0,96,0.00,,,0.03,WeatherCatV1.11B39,2013-01-24 15:32:00,
2013-01-24 07:37:00,48.3,47.2,30.09,WSW,250,0.0,1.0,96,0.00,,,0.03,WeatherCatV1.11B39,2013-01-24 15:37:00,
2013-01-24 07:42:00,48.3,47.2,30.09,WSW,250,0.0,0.0,96,0.00,,,0.03,WeatherCatV1.11B39,2013-01-24 15:42:00,
2013-01-24 07:47:00,48.3,47.2,30.09,WSW,250,0.0,1.0,96,0.00,,,0.03,WeatherCatV1.11B39,2013-01-24 15:47:00,
2013-01-24 07:52:00,48.4,47.3,30.09,WSW,250,0.0,2.0,96,0.00,,,0.03,WeatherCatV1.11B39,2013-01-24 15:52:00,
2013-01-24 07:57:00,48.4,47.3,30.09,WSW,250,0.0,1.0,96,0.00,,,0.03,WeatherCatV1.11B39,2013-01-24 15:57:00,
2013-01-24 08:02:00,48.4,47.3,30.09,WSW,250,0.0,0.0,96,0.00,,,0.03,WeatherCatV1.11B39,2013-01-24 16:02:00,
2013-01-24 08:07:00,48.5,47.4,30.10,WSW,250,0.0,1.0,96,0.00,,,0.03,WeatherCatV1.11B39,2013-01-24 16:07:00,
2013-01-24 08:12:00,48.5,47.4,30.10,WSW,250,0.0,0.0,96,0.00,,,0.03,WeatherCatV1.11B39,2013-01-24 16:12:00,
2013-01-24 08:17:00,48.6,47.5,30.11,WSW,250,0.0,0.0,96,0.00,,,0.03,WeatherCatV1.11B39,2013-01-24 16:17:00,
2013-01-24 08:22:00,48.6,47.5,30.11,WSW,250,0.0,0.0,96,0.00,,,0.03,WeatherCatV1.11B39,2013-01-24 16:22:00,
2013-01-24 08:27:00,48.7,47.9,30.11,WSW,250,0.0,0.0,97,0.00,,,0.03,WeatherCatV1.11B39,2013-01-24 16:27:00,
2013-01-24 08:32:00,48.8,48.0,30.11,WSW,250,0.0,0.0,97,0.00,,,0.03,WeatherCatV1.11B39,2013-01-24 16:32:00,
2013-01-24 08:37:00,48.9,48.1,30.11,WSW,250,0.0,0.0,97,0.00,,,0.03,WeatherCatV1.11B39,2013-01-24 16:37:00,
2013-01-24 08:42:00,49.0,48.2,30.11,WSW,250,0.0,0.0,97,0.00,,,0.03,WeatherCatV1.11B39,2013-01-24 16:42:00,
2013-01-24 08:47:00,49.1,48.3,30.11,WSW,250,0.0,0.0,97,0.00,,,0.03,WeatherCatV1.11B39,2013-01-24 16:47:00,
2013-01-24 08:52:00,49.2,48.4,30.11,WSW,250,0.0,0.0,97,0.00,,,0.03,WeatherCatV1.11B39,2013-01-24 16:52:00,
2013-01-24 08:57:00,49.4,48.6,30.11,WSW,250,0.0,0.0,97,0.00,,,0.03,WeatherCatV1.11B39,2013-01-24 16:57:00,
2013-01-24 09:02:00,49.6,48.8,30.12,WSW,250,0.0,0.0,97,0.00,,,0.03,WeatherCatV1.11B39,2013-01-24 17:02:00,
2013-01-24 09:07:00,49.8,49.0,30.12,WSW,250,0.0,0.0,97,0.00,,,0.03,WeatherCatV1.11B39,2013-01-24 17:07:00,
2013-01-24 09:12:00,50.0,49.2,30.12,WSW,250,0.0,0.0,97,0.00,,,0.03,WeatherCatV1.11B39,2013-01-24 17:12:00,
2013-01-24 09:17:00,50.1,49.3,30.12,WSW,250,0.0,0.0,97,0.00,,,0.03,WeatherCatV1.11B39,2013-01-24 17:17:00,
2013-01-24 09:22:00,50.3,49.5,30.13,WSW,250,0.0,1.0,97,0.00,,,0.03,WeatherCatV1.11B39,2013-01-24 17:22:00,
2013-01-24 09:27:00,50.4,49.6,30.13,WSW,250,0.0,1.0,97,0.00,,,0.03,WeatherCatV1.11B39,2013-01-24 17:27:00,
2013-01-24 09:32:00,50.5,49.7,30.13,WSW,250,0.0,2.0,97,0.00,,,0.03,WeatherCatV1.11B39,2013-01-24 17:32:00,
2013-01-24 09:37:00,50.6,49.8,30.13,WSW,250,1.0,3.0,97,0.00,,,0.03,WeatherCatV1.11B39,2013-01-24 17:37:00,
2013-01-24 09:42:00,50.8,50.0,30.13,WSW,250,0.0,1.0,97,0.00,,,0.03,WeatherCatV1.11B39,2013-01-24 17:42:00,
2013-01-24 09:47:00,50.8,50.0,30.13,WSW,250,0.0,1.0,97,0.00,,,0.03,WeatherCatV1.11B39,2013-01-24 17:47:00,
2013-01-24 09:52:00,50.9,50.1,30.13,WSW,250,0.0,2.0,97,0.00,,,0.03,WeatherCatV1.11B39,2013-01-24 17:52:00,
2013-01-24 09:57:00,51.0,50.2,30.12,WSW,250,1.0,1.0,97,0.00,,,0.03,WeatherCatV1.11B39,2013-01-24 17:57:00,
2013-01-24 10:02:00,51.0,49.9,30.12,WSW,250,0.0,1.0,96,0.00,,,0.03,WeatherCatV1.11B39,2013-01-24 18:02:00,
2013-01-24 10:07:00,51.2,50.4,30.13,WSW,250,0.0,3.0,97,0.00,,,0.03,WeatherCatV1.11B39,2013-01-24 18:07:00,
2013-01-24 10:12:00,51.4,50.3,30.13,WSW,250,0.0,1.0,96,0.00,,,0.03,WeatherCatV1.11B39,2013-01-24 18:12:00,
2013-01-24 10:17:00,51.5,50.4,30.12,WSW,245,0.0,1.0,96,0.00,,,0.03,WeatherCatV1.11B39,2013-01-24 18:17:00,
2013-01-24 10:22:00,51.7,50.6,30.13,SW,236,1.0,4.0,96,0.00,,,0.03,WeatherCatV1.11B39,2013-01-24 18:22:00,
2013-01-24 10:27:00,51.9,50.8,30.14,SW,214,2.0,4.0,96,0.00,,,0.03,WeatherCatV1.11B39,2013-01-24 18:27:00,
2013-01-24 10:32:00,52.2,51.1,30.14,SSW,196,4.0,5.0,96,0.00,,,0.03,WeatherCatV1.11B39,2013-01-24 18:32:00,
2013-01-24 10:37:00,52.2,51.1,30.14,South,188,0.0,4.0,96,0.00,,,0.03,WeatherCatV1.11B39,2013-01-24 18:37:00,
2013-01-24 10:42:00,52.2,50.8,30.14,South,190,5.0,5.0,95,0.00,,,0.03,WeatherCatV1.11B39,2013-01-24 18:42:00,
2013-01-24 10:47:00,52.3,50.9,30.13,SSW,195,2.0,2.0,95,0.00,,,0.03,WeatherCatV1.11B39,2013-01-24 18:47:00,
2013-01-24 10:52:00,52.5,51.1,30.13,SSW,195,0.0,1.0,95,0.00,,,0.03,WeatherCatV1.11B39,2013-01-24 18:52:00,
2013-01-24 10:57:00,52.6,51.2,30.13,SSW,196,1.0,3.0,95,0.00,,,0.03,WeatherCatV1.11B39,2013-01-24 18:57:00,
2013-01-24 11:02:00,52.8,51.4,30.14,SSW,202,1.0,4.0,95,0.00,,,0.03,WeatherCatV1.11B39,2013-01-24 19:02:00,
2013-01-24 11:07:00,52.8,51.4,30.13,SSW,202,0.0,2.0,95,0.00,,,0.03,WeatherCatV1.11B39,2013-01-24 19:07:00,
2013-01-24 11:12:00,52.8,51.1,30.12,SSW,202,0.0,0.0,94,0.00,,,0.03,WeatherCatV1.11B39,2013-01-24 19:12:00,
2013-01-24 11:17:00,52.9,51.2,30.13,SSW,202,0.0,1.0,94,0.00,,,0.03,WeatherCatV1.11B39,2013-01-24 19:17:00,
2013-01-24 11:22:00,53.2,51.5,30.13,SSW,202,1.0,4.0,94,0.00,,,0.03,WeatherCatV1.11B39,2013-01-24 19:22:00,
2013-01-24 11:27:00,53.4,51.7,30.13,SSW,200,1.0,2.0,94,0.00,,,0.03,WeatherCatV1.11B39,2013-01-24 19:27:00,
2013-01-24 11:32:00,53.5,51.8,30.12,SSW,200,0.0,2.0,94,0.00,,,0.03,WeatherCatV1.11B39,2013-01-24 19:32:00,
2013-01-24 11:37:00,53.7,52.0,30.12,SSW,200,0.0,1.0,94,0.00,,,0.03,WeatherCatV1.11B39,2013-01-24 19:37:00,
2013-01-24 11:42:00,53.9,52.2,30.12,SSW,202,0.0,1.0,94,0.00,,,0.03,WeatherCatV1.11B39,2013-01-24 19:42:00,
2013-01-24 11:47:00,54.3,52.6,30.11,SSW,205,0.0,1.0,94,0.00,,,0.03,WeatherCatV1.11B39,2013-01-24 19:47:00,
2013-01-24 11:52:00,54.8,52.8,30.11,SSW,206,0.0,2.0,93,0.00,,,0.03,WeatherCatV1.11B39,2013-01-24 19:52:00,
2013-01-24 11:57:00,55.1,52.8,30.11,SW,234,0.0,1.0,92,0.00,,,0.03,WeatherCatV1.11B39,2013-01-24 19:57:00,
2013-01-24 12:02:00,55.7,53.4,30.11,SW,234,0.0,3.0,92,0.00,,,0.03,WeatherCatV1.11B39,2013-01-24 20:02:00,
2013-01-24 12:08:00,56.1,53.5,30.11,South,191,0.0,3.0,91,0.00,,,0.03,WeatherCatV1.11B39,2013-01-24 20:08:00,
2013-01-24 12:13:00,56.6,53.4,30.10,South,173,3.0,5.0,89,0.00,,,0.03,WeatherCatV1.11B39,2013-01-24 20:13:00,
2013-01-24 12:18:00,56.9,53.1,30.10,WSW,249,0.0,2.0,87,0.00,,,0.03,WeatherCatV1.11B39,2013-01-24 20:18:00,
2013-01-24 12:23:00,57.5,53.7,30.10,SW,222,0.0,2.0,87,0.00,,,0.03,WeatherCatV1.11B39,2013-01-24 20:23:00,
2013-01-24 12:28:00,58.0,53.5,30.09,SW,221,0.0,3.0,85,0.00,,,0.03,WeatherCatV1.11B39,2013-01-24 20:28:00,
2013-01-24 12:33:00,58.7,54.2,30.09,SW,236,1.0,1.0,85,0.00,,,0.03,WeatherCatV1.11B39,2013-01-24 20:33:00,
2013-01-24 12:38:00,59.3,54.1,30.09,WSW,246,0.0,3.0,83,0.00,,,0.03,WeatherCatV1.11B39,2013-01-24 20:38:00,
2013-01-24 12:43:00,59.6,54.1,30.09,SSW,211,1.0,4.0,82,0.00,,,0.03,WeatherCatV1.11B39,2013-01-24 20:43:00,
2013-01-24 12:48:00,59.9,54.4,30.09,WSW,246,3.0,9.0,82,0.00,,,0.03,WeatherCatV1.11B39,2013-01-24 20:48:00,
2013-01-24 12:53:00,60.4,54.5,30.09,West,261,0.0,1.0,81,0.00,,,0.03,WeatherCatV1.11B39,2013-01-24 20:53:00,
2013-01-24 12:58:00,60.5,54.3,30.08,WSW,256,4.0,5.0,80,0.00,,,0.03,WeatherCatV1.11B39,2013-01-24 20:58:00,
2013-01-24 13:03:00,61.1,54.5,30.09,WSW,248,4.0,4.0,79,0.00,,,0.03,WeatherCatV1.11B39,2013-01-24 21:03:00,
2013-01-24 13:08:00,61.3,54.7,30.09,WSW,247,0.0,3.0,79,0.00,,,0.03,WeatherCatV1.11B39,2013-01-24 21:08:00,
2013-01-24 13:13:00,61.5,54.2,30.09,WSW,250,3.0,5.0,77,0.00,,,0.03,WeatherCatV1.11B39,2013-01-24 21:13:00,
2013-01-24 13:18:00,61.4,54.8,30.09,NW,313,0.0,6.0,79,0.00,,,0.03,WeatherCatV1.11B39,2013-01-24 21:18:00,
2013-01-24 13:23:00,61.2,54.6,30.09,NW,309,0.0,1.0,79,0.00,,,0.03,WeatherCatV1.11B39,2013-01-24 21:23:00,
2013-01-24 13:28:00,61.0,54.4,30.09,NW,309,0.0,1.0,79,0.00,,,0.03,WeatherCatV1.11B39,2013-01-24 21:28:00,
2013-01-24 13:33:00,60.8,54.2,30.09,WNW,294,0.0,3.0,79,0.00,,,0.03,WeatherCatV1.11B39,2013-01-24 21:33:00,
2013-01-24 13:38:00,60.8,54.2,30.09,West,281,3.0,3.0,79,0.00,,,0.03,WeatherCatV1.11B39,2013-01-24 21:38:00,
2013-01-24 13:43:00,60.7,54.1,30.08,West,280,2.0,2.0,79,0.00,,,0.03,WeatherCatV1.11B39,2013-01-24 21:43:00,
2013-01-24 13:48:00,60.7,54.1,30.09,West,269,3.0,4.0,79,0.00,,,0.03,WeatherCatV1.11B39,2013-01-24 21:48:00,
2013-01-24 13:53:00,60.7,53.8,30.08,West,268,0.0,1.0,78,0.00,,,0.03,WeatherCatV1.11B39,2013-01-24 21:53:00,
2013-01-24 13:58:00,60.9,54.0,30.09,West,268,1.0,2.0,78,0.00,,,0.03,WeatherCatV1.11B39,2013-01-24 21:58:00,
2013-01-24 14:03:00,61.1,53.8,30.08,WSW,257,0.0,4.0,77,0.00,,,0.03,WeatherCatV1.11B39,2013-01-24 22:03:00,
2013-01-24 14:08:00,61.1,53.8,30.08,WSW,257,1.0,1.0,77,0.00,,,0.03,WeatherCatV1.11B39,2013-01-24 22:08:00,
2013-01-24 14:13:00,61.2,53.9,30.08,WSW,257,0.0,2.0,77,0.00,,,0.03,WeatherCatV1.11B39,2013-01-24 22:13:00,
2013-01-24 14:18:00,61.2,53.6,30.08,WSW,257,0.0,0.0,76,0.00,,,0.03,WeatherCatV1.11B39,2013-01-24 22:18:00,
2013-01-24 14:23:00,61.2,53.6,30.08,WSW,257,0.0,2.0,76,0.00,,,0.03,WeatherCatV1.11B39,2013-01-24 22:23:00,
2013-01-24 14:28:00,61.3,53.7,30.07,WSW,257,1.0,2.0,76,0.00,,,0.03,WeatherCatV1.11B39,2013-01-24 22:28:00,
2013-01-24 14:33:00,61.8,54.2,30.07,WSW,256,2.0,4.0,76,0.00,,,0.03,WeatherCatV1.11B39,2013-01-24 22:33:00,
2013-01-24 14:38:00,62.2,54.2,30.08,NW,316,2.0,3.0,75,0.00,,,0.03,WeatherCatV1.11B39,2013-01-24 22:38:00,
2013-01-24 14:43:00,62.3,53.9,30.07,NNW,333,0.0,3.0,74,0.00,,,0.03,WeatherCatV1.11B39,2013-01-24 22:43:00,
2013-01-24 14:48:00,62.3,53.9,30.08,NNW,328,1.0,2.0,74,0.00,,,0.03,WeatherCatV1.11B39,2013-01-24 22:48:00,
2013-01-24 14:53:00,62.2,53.8,30.08,WNW,300,1.0,3.0,74,0.00,,,0.03,WeatherCatV1.11B39,2013-01-24 22:53:00,
2013-01-24 14:58:00,62.2,53.8,30.08,WSW,254,5.0,5.0,74,0.00,,,0.03,WeatherCatV1.11B39,2013-01-24 22:58:00,
2013-01-24 15:03:00,62.2,53.8,30.08,WSW,252,0.0,1.0,74,0.00,,,0.03,WeatherCatV1.11B39,2013-01-24 23:03:00,
2013-01-24 15:08:00,62.2,53.8,30.08,West,260,0.0,4.0,74,0.00,,,0.03,WeatherCatV1.11B39,2013-01-24 23:08:00,
2013-01-24 15:13:00,62.1,54.1,30.08,WNW,303,0.0,2.0,75,0.00,,,0.03,WeatherCatV1.11B39,2013-01-24 23:13:00,
2013-01-24 15:18:00,62.0,54.0,30.08,West,280,0.0,4.0,75,0.00,,,0.03,WeatherCatV1.11B39,2013-01-24 23:18:00,
2013-01-24 15:23:00,61.8,54.2,30.08,West,280,0.0,1.0,76,0.00,,,0.03,WeatherCatV1.11B39,2013-01-24 23:23:00,
2013-01-24 15:28:00,61.5,53.5,30.08,NW,317,0.0,5.0,75,0.00,,,0.03,WeatherCatV1.11B39,2013-01-24 23:28:00,
2013-01-24 15:33:00,61.3,53.7,30.08,NW,319,1.0,2.0,76,0.00,,,0.03,WeatherCatV1.11B39,2013-01-24 23:33:00,
2013-01-24 15:38:00,61.1,53.5,30.09,NW,323,0.0,1.0,76,0.00,,,0.03,WeatherCatV1.11B39,2013-01-24 23:38:00,
2013-01-24 15:43:00,61.1,53.5,30.09,NW,322,0.0,3.0,76,0.00,,,0.03,WeatherCatV1.11B39,2013-01-24 23:43:00,
2013-01-24 15:48:00,61.0,53.7,30.09,NW,323,0.0,0.0,77,0.00,,,0.03,WeatherCatV1.11B39,2013-01-24 23:48:00,
2013-01-24 15:53:00,61.0,53.7,30.09,NW,323,0.0,2.0,77,0.00,,,0.03,WeatherCatV1.11B39,2013-01-24 23:53:00,
2013-01-24 15:58:00,60.9,53.6,30.09,NW,323,0.0,3.0,77,0.00,,,0.03,WeatherCatV1.11B39,2013-01-24 23:58:00,
2013-01-24 16:03:00,60.9,53.6,30.09,NW,322,0.0,1.0,77,0.00,,,0.03,WeatherCatV1.11B39,2013-01-25 00:03:00,
2013-01-24 16:08:00,60.8,53.5,30.09,NW,323,0.0,1.0,77,0.00,,,0.03,WeatherCatV1.11B39,2013-01-25 00:08:00,
2013-01-24 16:13:00,60.6,53.3,30.09,NW,322,1.0,3.0,77,0.00,,,0.03,WeatherCatV1.11B39,2013-01-25 00:13:00,
2013-01-24 16:18:00,60.4,53.5,30.09,NW,322,0.0,1.0,78,0.00,,,0.03,WeatherCatV1.11B39,2013-01-25 00:18:00,
2013-01-24 16:20:00,60.3,53.1,30.09,NW,323,0.0,0.0,77,0.00,,,0.00,WeatherCatV1.11B39,2013-01-25 00:20:00,
2013-01-24 16:25:00,60.1,53.2,30.09,NW,323,0.0,4.0,78,0.00,,,0.00,WeatherCatV1.11B39,2013-01-25 00:25:00,
2013-01-24 16:30:00,59.9,53.0,30.09,NW,322,1.0,1.0,78,0.00,,,0.00,WeatherCatV1.11B39,2013-01-25 00:30:00,
2013-01-24 16:35:00,59.8,53.3,30.10,NW,322,0.0,1.0,79,0.00,,,0.00,WeatherCatV1.11B39,2013-01-25 00:35:00,
2013-01-24 16:40:00,59.6,53.1,30.09,NW,322,0.0,2.0,79,0.00,,,0.00,WeatherCatV1.11B39,2013-01-25 00:40:00,
2013-01-24 16:45:00,59.4,52.9,30.10,NW,322,0.0,0.0,79,0.00,,,0.00,WeatherCatV1.11B39,2013-01-25 00:45:00,
2013-01-24 16:50:00,59.3,52.8,30.10,NW,322,0.0,1.0,79,0.00,,,0.00,WeatherCatV1.11B39,2013-01-25 00:50:00,
2013-01-24 16:55:00,59.1,52.9,30.10,NW,322,0.0,0.0,80,0.00,,,0.00,WeatherCatV1.11B39,2013-01-25 00:55:00,
2013-01-24 17:00:00,59.1,52.9,30.11,NW,322,0.0,0.0,80,0.00,,,0.00,WeatherCatV1.11B39,2013-01-25 01:00:00,
2013-01-24 17:05:00,58.9,52.7,30.11,NW,322,0.0,0.0,80,0.00,,,0.00,WeatherCatV1.11B39,2013-01-25 01:05:00,
2013-01-24 17:10:00,58.7,52.9,30.11,NW,322,0.0,0.0,81,0.00,,,0.00,WeatherCatV1.11B39,2013-01-25 01:10:00,
2013-01-24 17:15:00,58.6,52.8,30.11,NW,322,0.0,0.0,81,0.00,,,0.00,WeatherCatV1.11B39,2013-01-25 01:15:00,
2013-01-24 17:20:00,58.5,52.7,30.11,NW,322,0.0,0.0,81,0.00,,,0.00,WeatherCatV1.11B39,2013-01-25 01:20:00,
2013-01-24 17:25:00,58.3,52.8,30.11,NW,322,0.0,0.0,82,0.00,,,0.00,WeatherCatV1.11B39,2013-01-25 01:25:00,
2013-01-24 17:30:00,58.2,52.7,30.11,NW,322,0.0,1.0,82,0.00,,,0.00,WeatherCatV1.11B39,2013-01-25 01:30:00,
2013-01-24 17:35:00,58.1,53.0,30.11,NW,322,0.0,1.0,83,0.00,,,0.00,WeatherCatV1.11B39,2013-01-25 01:35:00,
2013-01-24 17:40:00,57.9,53.1,30.11,NW,322,0.0,0.0,84,0.00,,,0.00,WeatherCatV1.11B39,2013-01-25 01:40:00,
2013-01-24 17:45:00,57.7,52.9,30.12,NW,322,0.0,0.0,84,0.00,,,0.00,WeatherCatV1.11B39,2013-01-25 01:45:00,
2013-01-24 17:50:00,57.5,53.0,30.12,NW,322,0.0,1.0,85,0.00,,,0.00,WeatherCatV1.11B39,2013-01-25 01:50:00,
2013-01-24 17:55:00,57.3,52.8,30.12,NW,322,0.0,0.0,85,0.00,,,0.00,WeatherCatV1.11B39,2013-01-25 01:55:00,
2013-01-24 18:00:00,57.0,52.8,30.12,NW,322,0.0,1.0,86,0.00,,,0.00,WeatherCatV1.11B39,2013-01-25 02:00:00,
2013-01-24 18:05:00,56.8,52.6,30.12,NW,322,0.0,2.0,86,0.00,,,0.00,WeatherCatV1.11B39,2013-01-25 02:05:00,
2013-01-24 18:10:00,56.6,52.8,30.12,NW,322,0.0,0.0,87,0.00,,,0.00,WeatherCatV1.11B39,2013-01-25 02:10:00,
2013-01-24 18:15:00,56.3,52.5,30.13,NW,322,0.0,0.0,87,0.00,,,0.00,WeatherCatV1.11B39,2013-01-25 02:15:00,
2013-01-24 18:20:00,56.1,52.6,30.13,NW,322,0.0,1.0,88,0.00,,,0.00,WeatherCatV1.11B39,2013-01-25 02:20:00,
2013-01-24 18:25:00,55.9,52.7,30.13,NW,322,0.0,0.0,89,0.00,,,0.00,WeatherCatV1.11B39,2013-01-25 02:25:00,
2013-01-24 18:30:00,55.6,52.4,30.13,NW,322,0.0,1.0,89,0.00,,,0.00,WeatherCatV1.11B39,2013-01-25 02:30:00,
2013-01-24 18:35:00,55.4,52.5,30.13,NW,322,0.0,1.0,90,0.00,,,0.00,WeatherCatV1.11B39,2013-01-25 02:35:00,
2013-01-24 18:40:00,55.2,52.3,30.13,NW,322,0.0,1.0,90,0.00,,,0.00,WeatherCatV1.11B39,2013-01-25 02:40:00,
2013-01-24 18:45:00,55.0,52.1,30.14,NW,322,0.0,1.0,90,0.00,,,0.00,WeatherCatV1.11B39,2013-01-25 02:45:00,
2013-01-24 18:50:00,54.8,51.9,30.14,NW,322,0.0,2.0,90,0.00,,,0.00,WeatherCatV1.11B39,2013-01-25 02:50:00,
2013-01-24 18:55:00,54.5,51.9,30.14,NW,322,0.0,1.0,91,0.00,,,0.00,WeatherCatV1.11B39,2013-01-25 02:55:00,
2013-01-24 19:00:00,54.4,51.8,30.14,NW,322,0.0,1.0,91,0.00,,,0.00,WeatherCatV1.11B39,2013-01-25 03:00:00,
2013-01-24 19:05:00,54.2,51.6,30.14,NW,322,0.0,0.0,91,0.00,,,0.00,WeatherCatV1.11B39,2013-01-25 03:05:00,
2013-01-24 19:10:00,54.0,51.7,30.13,NW,322,0.0,1.0,92,0.00,,,0.00,WeatherCatV1.11B39,2013-01-25 03:10:00,
2013-01-24 19:15:00,53.9,51.6,30.13,NW,322,0.0,0.0,92,0.00,,,0.00,WeatherCatV1.11B39,2013-01-25 03:15:00,
2013-01-24 19:20:00,53.7,51.4,30.13,NW,322,0.0,0.0,92,0.00,,,0.00,WeatherCatV1.11B39,2013-01-25 03:20:00,
2013-01-24 19:25:00,53.6,51.3,30.13,NW,322,0.0,0.0,92,0.00,,,0.00,WeatherCatV1.11B39,2013-01-25 03:25:00,
2013-01-24 19:30:00,53.5,51.5,30.13,NW,322,0.0,0.0,93,0.00,,,0.00,WeatherCatV1.11B39,2013-01-25 03:30:00,
2013-01-24 19:35:00,53.3,51.3,30.13,NW,322,0.0,2.0,93,0.00,,,0.00,WeatherCatV1.11B39,2013-01-25 03:35:00,
2013-01-24 19:40:00,53.2,51.2,30.13,NW,322,0.0,0.0,93,0.00,,,0.00,WeatherCatV1.11B39,2013-01-25 03:40:00,
2013-01-24 19:45:00,53.2,51.2,30.13,NW,322,0.0,2.0,93,0.00,,,0.00,WeatherCatV1.11B39,2013-01-25 03:45:00,
2013-01-24 19:50:00,53.0,51.0,30.13,NW,322,0.0,0.0,93,0.00,,,0.00,WeatherCatV1.11B39,2013-01-25 03:50:00,
2013-01-24 19:55:00,52.9,51.2,30.13,NW,322,0.0,1.0,94,0.00,,,0.00,WeatherCatV1.11B39,2013-01-25 03:55:00,
2013-01-24 20:00:00,52.7,51.0,30.13,NW,322,0.0,1.0,94,0.00,,,0.00,WeatherCatV1.11B39,2013-01-25 04:00:00,
2013-01-24 20:05:00,52.6,50.9,30.13,NW,322,0.0,1.0,94,0.00,,,0.00,WeatherCatV1.11B39,2013-01-25 04:05:00,
2013-01-24 20:10:00,52.5,50.8,30.13,NW,322,0.0,0.0,94,0.00,,,0.00,WeatherCatV1.11B39,2013-01-25 04:10:00,
2013-01-24 20:15:00,52.3,50.6,30.13,NW,322,0.0,1.0,94,0.00,,,0.00,WeatherCatV1.11B39,2013-01-25 04:15:00,
2013-01-24 20:20:00,52.2,50.5,30.13,NW,322,0.0,1.0,94,0.00,,,0.00,WeatherCatV1.11B39,2013-01-25 04:20:00,
2013-01-24 20:25:00,52.2,50.5,30.13,NW,322,0.0,1.0,94,0.00,,,0.00,WeatherCatV1.11B39,2013-01-25 04:25:00,
2013-01-24 20:30:00,52.1,50.4,30.13,NW,321,0.0,0.0,94,0.00,,,0.00,WeatherCatV1.11B39,2013-01-25 04:30:00,
2013-01-24 20:35:00,52.1,50.4,30.13,NW,321,0.0,0.0,94,0.00,,,0.00,WeatherCatV1.11B39,2013-01-25 04:35:00,
2013-01-24 20:40:00,51.9,50.5,30.14,NW,321,0.0,1.0,95,0.00,,,0.00,WeatherCatV1.11B39,2013-01-25 04:40:00,
2013-01-24 20:45:00,51.9,50.5,30.14,NW,321,0.0,2.0,95,0.00,,,0.00,WeatherCatV1.11B39,2013-01-25 04:45:00,
2013-01-24 20:50:00,51.8,50.4,30.14,NW,321,1.0,4.0,95,0.00,,,0.00,WeatherCatV1.11B39,2013-01-25 04:50:00,
2013-01-24 20:55:00,51.8,50.4,30.14,NW,321,1.0,3.0,95,0.00,,,0.00,WeatherCatV1.11B39,2013-01-25 04:55:00,
2013-01-24 21:00:00,51.8,50.4,30.14,NW,320,0.0,0.0,95,0.00,,,0.00,WeatherCatV1.11B39,2013-01-25 05:00:00,
2013-01-24 21:05:00,51.7,50.3,30.14,NW,320,0.0,0.0,95,0.00,,,0.00,WeatherCatV1.11B39,2013-01-25 05:05:00,
2013-01-24 21:10:00,51.7,50.3,30.14,NW,320,0.0,1.0,95,0.00,,,0.00,WeatherCatV1.11B39,2013-01-25 05:10:00,
2013-01-24 21:15:00,51.6,50.2,30.14,NW,320,0.0,3.0,95,0.00,,,0.00,WeatherCatV1.11B39,2013-01-25 05:15:00,
2013-01-24 21:20:00,51.6,50.5,30.15,NW,320,0.0,3.0,96,0.00,,,0.00,WeatherCatV1.11B39,2013-01-25 05:20:00,
2013-01-24 21:25:00,51.5,50.4,30.15,NW,320,0.0,4.0,96,0.00,,,0.00,WeatherCatV1.11B39,2013-01-25 05:25:00,
2013-01-24 21:30:00,51.6,50.5,30.15,NW,320,1.0,2.0,96,0.00,,,0.00,WeatherCatV1.11B39,2013-01-25 05:30:00,
2013-01-24 21:35:00,51.5,50.4,30.15,NW,320,1.0,2.0,96,0.00,,,0.00,WeatherCatV1.11B39,2013-01-25 05:35:00,
2013-01-24 21:40:00,51.6,50.5,30.15,NW,319,1.0,1.0,96,0.00,,,0.00,WeatherCatV1.11B39,2013-01-25 05:40:00,
2013-01-24 21:45:00,51.6,50.5,30.15,NW,319,1.0,0.0,96,0.00,,,0.00,WeatherCatV1.11B39,2013-01-25 05:45:00,
2013-01-24 21:50:00,51.5,50.4,30.16,NW,318,0.0,1.0,96,0.00,,,0.00,WeatherCatV1.11B39,2013-01-25 05:50:00,
2013-01-24 21:55:00,51.5,50.4,30.16,NW,318,0.0,2.0,96,0.00,,,0.00,WeatherCatV1.11B39,2013-01-25 05:55:00,
2013-01-24 22:00:00,51.5,50.4,30.16,NW,318,0.0,2.0,96,0.00,,,0.00,WeatherCatV1.11B39,2013-01-25 06:00:00,
2013-01-24 22:05:00,51.5,50.4,30.15,NW,317,1.0,3.0,96,0.00,,,0.00,WeatherCatV1.11B39,2013-01-25 06:05:00,
2013-01-24 22:10:00,51.5,50.4,30.15,NW,317,1.0,1.0,96,0.00,,,0.00,WeatherCatV1.11B39,2013-01-25 06:10:00,
2013-01-24 22:15:00,51.4,50.3,30.16,NW,316,1.0,4.0,96,0.00,,,0.00,WeatherCatV1.11B39,2013-01-25 06:15:00,
2013-01-24 22:20:00,51.4,50.3,30.16,NW,306,1.0,4.0,96,0.00,,,0.00,WeatherCatV1.11B39,2013-01-25 06:20:00,
2013-01-24 22:25:00,51.4,50.6,30.16,West,275,1.0,4.0,97,0.00,,,0.00,WeatherCatV1.11B39,2013-01-25 06:25:00,
2013-01-24 22:30:00,51.4,50.6,30.16,WSW,240,1.0,2.0,97,0.00,,,0.00,WeatherCatV1.11B39,2013-01-25 06:30:00,
2013-01-24 22:35:00,51.4,50.6,30.16,WSW,248,1.0,2.0,97,0.00,,,0.00,WeatherCatV1.11B39,2013-01-25 06:35:00,
2013-01-24 22:40:00,51.3,50.5,30.16,WSW,251,1.0,2.0,97,0.00,,,0.00,WeatherCatV1.11B39,2013-01-25 06:40:00,
2013-01-24 22:45:00,51.3,50.5,30.16,WSW,251,1.0,4.0,97,0.00,,,0.00,WeatherCatV1.11B39,2013-01-25 06:45:00,
2013-01-24 22:50:00,51.3,50.5,30.16,WSW,251,1.0,3.0,97,0.00,,,0.00,WeatherCatV1.11B39,2013-01-25 06:50:00,
2013-01-24 22:55:00,51.3,50.5,30.16,WSW,250,1.0,4.0,97,0.00,,,0.00,WeatherCatV1.11B39,2013-01-25 06:55:00,
2013-01-24 23:00:00,51.4,50.6,30.16,WSW,249,1.0,2.0,97,0.00,,,0.00,WeatherCatV1.11B39,2013-01-25 07:00:00,
2013-01-24 23:05:00,51.3,50.5,30.16,WSW,248,0.0,0.0,97,0.00,,,0.00,WeatherCatV1.11B39,2013-01-25 07:05:00,
2013-01-24 23:10:00,51.3,50.5,30.16,WSW,248,0.0,0.0,97,0.00,,,0.00,WeatherCatV1.11B39,2013-01-25 07:10:00,
2013-01-24 23:15:00,51.3,50.5,30.16,WSW,248,0.0,0.0,97,0.00,,,0.00,WeatherCatV1.11B39,2013-01-25 07:15:00,
2013-01-24 23:20:00,51.2,50.4,30.16,WSW,248,0.0,0.0,97,0.00,,,0.00,WeatherCatV1.11B39,2013-01-25 07:20:00,
2013-01-24 23:25:00,51.2,50.4,30.16,WSW,248,0.0,0.0,97,0.00,,,0.00,WeatherCatV1.11B39,2013-01-25 07:25:00,
2013-01-24 23:30:00,51.2,50.4,30.17,WSW,248,0.0,0.0,97,0.00,,,0.00,WeatherCatV1.11B39,2013-01-25 07:30:00,
2013-01-24 23:35:00,51.1,50.3,30.17,WSW,248,0.0,0.0,97,0.00,,,0.00,WeatherCatV1.11B39,2013-01-25 07:35:00,
2013-01-24 23:40:00,51.1,50.3,30.17,WSW,248,0.0,1.0,97,0.00,,,0.00,WeatherCatV1.11B39,2013-01-25 07:40:00,
2013-01-24 23:45:00,51.1,50.3,30.17,WSW,248,0.0,1.0,97,0.00,,,0.00,WeatherCatV1.11B39,2013-01-25 07:45:00,
2013-01-24 23:50:00,51.1,50.3,30.16,WSW,248,0.0,0.0,97,0.00,,,0.00,WeatherCatV1.11B39,2013-01-25 07:50:00,
2013-01-24 23:55:00,51.0,50.2,30.16,WSW,248,0.0,0.0,97,0.00,,,0.00,WeatherCatV1.11B39,2013-01-25 07:55:00,